Regional Weather Roundup
Issued by NWS Upton, NY

Home | Current Version | Previous Version | Text Only | Print | Product List | Glossary On
Versions: 1 2 3 4 5 6 7 8 9 10 11 12 13 14 15 16 17 18 19 20 21 22 23 24 25 26 27 28 29 30 31 32 33 34 35 36 37 38 39 40 41 42 43 44 45 46 47 48 49 50
000
ASUS41 KOKX 250308
RWROKX

REGIONAL WEATHER ROUNDUP
NATIONAL WEATHER SERVICE NEW YORK NY
1100 PM EDT MON APR 24 2017

NOTE: "FAIR" INDICATES FEW OR NO CLOUDS BELOW 12,000 FEET WITH NO
SIGNIFICANT WEATHER AND/OR OBSTRUCTIONS TO VISIBILITY.

NYZ071-072-176-178-NJZ106-104-250400-
NEW YORK CITY METRO AREA

CITY           SKY/WX    TMP DP  RH WIND       PRES   REMARKS
Central Park   CLOUDY    53  43  68 E9        30.16S
Wall St Helipt CLOUDY    54  41  61 NE9       30.14S
Bronx Bot Gard   N/A     50  41  71 NE7       30.14S
LaGuardia APRT CLOUDY    52  45  77 NE12      30.13F
Kennedy INTL   LGT RAIN  54  46  74 E13       30.14S
Breezy Point     N/A     52 N/A N/A E12G17      N/A
Newark/Liberty CLOUDY    56  37  49 E6        30.13S
Teterboro      DRIZZLE   54  43  66 E5        30.13S
$$

NYZ177-179-078>081-250400-
LONG ISLAND NEW YORK

CITY           SKY/WX    TMP DP  RH WIND       PRES   REMARKS
Jones Beach      N/A     52 N/A N/A E16         N/A
Matinecock PT  NOT AVBL
Farmingdale    CLOUDY    53  45  74 E9        30.14S
MacArthur/ISP  CLOUDY    52  47  83 E8        30.14S
Shirley        CLOUDY    51  47  86 E6        30.15F
Mt Sinai Harb    N/A    N/A N/A N/A E6G12       N/A
Westhampton    CLOUDY    50  46  86 E8        30.16F
East Hampton   CLOUDY    48  45  90 E6        30.16S
Montauk          N/A     48  46  93 E6        30.18
$$

NYZ052-065-067-250400-
HUDSON VALLEY

CITY           SKY/WX    TMP DP  RH WIND       PRES   REMARKS
White Plains   CLOUDY    51  40  65 E6        30.13S
Larchmont Harb   N/A     48 N/A N/A NE17        N/A
Croton O-T Hud   N/A     54 N/A N/A MISG        N/A
Newburgh       PTCLDY    57  37  47 SE12      30.14S
Montgomery     CLOUDY    57  39  51 CALM      30.12S
Poughkeepsie   CLOUDY    58  33  39 SE5       30.12S
Albany         CLOUDY    51  33  50 N7        30.16S
$$

NJZ001-105-106-008-010-013-015-019>022-104-250400-
NEW JERSEY

CITY           SKY/WX    TMP DP  RH WIND       PRES   REMARKS
Newark/Liberty CLOUDY    56  37  49 E6        30.13S
Teterboro      DRIZZLE   54  43  66 E5        30.13S
Caldwell       CLOUDY    54  42  64 E8        30.14R
Somerville     CLOUDY    54  43  66 CALM      30.10S
Linden         CLOUDY    55  37  49 SE8       30.13S
Sussex         CLOUDY    56  37  49 E5        30.13S
Andover          N/A     56  36  47 CALM      30.11F
Trenton        CLOUDY    52  41  66 E6        30.09F
Millville      CLOUDY    51  50  96 NE12      30.04F
Atlantic City  CLOUDY    53  49  86 E13       30.06S
Wrightstown    MOCLDY    50  46  86 NE9       30.06F
Toms River     LGT RAIN  50  48  93 E8        30.10F
Belmar         LGT RAIN  49  47  93 E9        30.11F
$$

PAZ047>061-062-071-250400-
EASTERN PENNSYLVANIA

CITY           SKY/WX    TMP DP  RH WIND       PRES   REMARKS
Philadelphia   LGT RAIN  53  43  68 E14G24    30.07F
Allentown      CLOUDY    54  43  66 E7        30.10S
Scranton       CLOUDY    56  40  55 N5        30.08F
$$

CTZ002-004>006-009-010-012-RIZ004-006-007-MAZ004-011-015-250400-
SOUTHERN NEW ENGLAND
 IN CT

CITY           SKY/WX    TMP DP  RH WIND       PRES   REMARKS
Bradley INTL   CLOUDY    56  33  42 S7        30.17S
Hartford       CLOUDY    53  40  61 CALM      30.17F
Danbury        CLOUDY    50  40  68 E7        30.16S
Wtrbury/Oxford CLOUDY    52  34  50 E6        30.17S
Bridgeport     CLOUDY    51  44  77 E12       30.16S
Meriden        CLOUDY    54  37  52 SE3       30.17S
New Haven      CLOUDY    50  43  77 CALM      30.17R
Chester        MOCLDY    50  39  66 CALM      30.16F
Groton         CLOUDY    51  46  83 NE5       30.17F
Wilimantic     CLOUDY    54  41  61 CALM      30.19S

 IN RI

CITY           SKY/WX    TMP DP  RH WIND       PRES   REMARKS
Providence     CLOUDY    49  46  90 CALM      30.20S
Block Island   CLOUDY    48  46  93 E7        30.19R
Westerly       CLOUDY    51  47  86 NE5       30.19S
 IN MA

CITY           SKY/WX    TMP DP  RH WIND       PRES   REMARKS
Boston         CLOUDY    52  42  69 SE5       30.20R
Worcester      PTCLDY    53  34  48 S3        30.18S
Westfield      CLOUDY    56  39  53 CALM      30.16S
Provincetown   CLOUDY    49  45  86 SE7       30.22S
Nantucket      CLOUDY    48  44  86 E9        30.20S
$$

ANZ330-335-338-340-345-350-353-355-250400-
COASTAL MARINE OBSERVATIONS


STATION/POSITION TIME  SKY/WX   TEMP    WIND        PRES    VSBY  WAVE
                                AIR SEA DIR/SP/G                  HT/PER
                 (UTC)          (F)     (DEG/KT/KT) (MB)    (MI)  (FT/S)
NY HARB ENTRANCE 0150            49 50   70/ 14/ 16 1019.9          3/11
20 S FIRE ISLAND 0250            49 47   80/ 14/ 17 1019.0          4/ 4
GREAT SOUTH BAY  0230            52 56   70/ 14/ 19   N/A
23 SSW MONTAUK P 0150            47 46              1021.2          3/10
15 E BARNEGAT LI 0230               50                N/A           5/ 6
HUDSON CANYON    0150            49 47   80/ 16/ 19 1018.7          5/ 6
KINGS POINT      0248            51 47     CALM     1020.4
EXECUTION ROCKS  NOT AVBL
CENTRAL LI SOUND NOT AVBL
EASTERN LI SOUND NOT AVBL
ROBBINS REEF     0248            55      90/ 11/ 13 1020.3
$$


>>>>>>>>>>>>>>>>>>>>>>>>>>>> KEY <<<<<<<<<<<<<<<<<<<<<<<<<<<
>                                                          <
>     SKY/WX - Sky Condition/Present Weather               <
>     TMP    - Temperature in Fahrenheit                   <
>     DP     - Dew Point in Fahrenheit                     <
>     RH     - Relative Humidity in Percent                <
>     WIND   - Direction (from) and Speed in MPH           <
>     PRES   - Mean Sea Level Pressure (inches of Hg)      <
>     WCI    - Wind Chill Index                            <
>     VSB    - VISIBILITY IN MILES                         <
>     HX     - HEAT INDEX                                  <
>     TC     - TEMPERATURE IN CELSIUS                      <
>     VRB    - VARIABLE WIND DIRECTION                     <
>                                                          <
>>>>>>>>>>>>>>>>>>>>>>>>>>>> KEY <<<<<<<<<<<<<<<<<<<<<<<<<<<



USA.gov is the U.S. government's official web portal to all federal, state and local government web resources and services.